Location: Fauquembergues
(50.6005°N, 2.0987°E)
Time: 07:57:58
(UTC+00:00)

Cosmos 1066 Rocket - Pass Details

Date: 14 July 2020
Orbit: 799 x 894 km, 81.2° (Epoch: 14 August)

Event Time Altitude Azimuth Distance (km) Brightness Sun altitude
Rises 02:45:47 0° 344° (NNW) 3,512 8.0 -8.8°
Reaches altitude 10° 02:48:16 10° 341° (NNW) 2,573 7.2 -8.6°
Maximum altitude 02:54:02 59° 264° (W) 1,030 4.5 -8.0°
Drops below altitude 10° 02:59:44 10° 186° (S) 2,551 6.2 -7.4°
Sets 03:02:12 0° 183° (S) 3,479 6.9 -7.1°
